• In Spain
  • List of Countries
  • For 7 days
  • Water Temperature
  • Satellite Maps
  • Weather Map
  • Weather Widgets
  • user-avatar
    Login

    Hourly Weather San Miguel de Tucumán

    Today, 16 October, Tuesday

    Time Temperature Precipitation Wind Pressure Humidity
    00:00 +23°C° 0 mm 2 mps 714 mmHg 51%
    01:00 +23°C° 0 mm 2 mps 714 mmHg 51%
    02:00 +21°C° 0 mm 2 mps 713 mmHg 50%
    03:00 +21°C° 0 mm 2 mps 713 mmHg 50%
    04:00 +21°C° 0 mm 2 mps 713 mmHg 49%
    05:00 +20°C° 0 mm 2 mps 713 mmHg 49%
    06:00 +23°C° 0 mm 2 mps 713 mmHg 46%
    07:00 +25°C° 0 mm 2 mps 714 mmHg 44%
    08:00 +27°C° 0 mm 2 mps 714 mmHg 41%
    09:00 +29°C° 0 mm 2 mps 714 mmHg 37%
    10:00 +31°C° 0 mm 2 mps 714 mmHg 34%
    11:00 +34°C° 0 mm 2 mps 714 mmHg 30%
    12:00 +35°C° 0 mm 3 mps 713 mmHg 29%
    13:00 +36°C° 0 mm 3 mps 713 mmHg 28%
    14:00 +37°C° 0 mm 3 mps 712 mmHg 26%
    15:00 +37°C° 0 mm 3 mps 711 mmHg 29%
    16:00 +36°C° 0 mm 3 mps 711 mmHg 31%
    17:00 +35°C° 0 mm 3 mps 711 mmHg 34%
    18:00 +33°C° 0 mm 3 mps 711 mmHg 40%
    19:00 +30°C° 0 mm 3 mps 712 mmHg 46%
    20:00 +28°C° 0 mm 2 mps 712 mmHg 52%
    21:00 +28°C° 0 mm 2 mps 713 mmHg 54%
    22:00 +27°C° 0 mm 2 mps 713 mmHg 55%
    23:00 +26°C° 0 mm 2 mps 713 mmHg 57%

    Tomorrow, 17 October, Wednesday

    Time Temperature Precipitation Wind Pressure Humidity
    00:00 +26°C° 0 mm 1 mps 713 mmHg 58%
    01:00 +25°C° 0 mm 1 mps 713 mmHg 58%
    02:00 +25°C° 0 mm 1 mps 713 mmHg 59%
    03:00 +24°C° 0 mm 1 mps 713 mmHg 59%
    04:00 +24°C° 0 mm 1 mps 713 mmHg 60%
    05:00 +23°C° 0 mm 1 mps 713 mmHg 60%
    06:00 +25°C° 0 mm 1 mps 714 mmHg 57%
    07:00 +26°C° 0 mm 1 mps 714 mmHg 55%
    08:00 +28°C° 0 mm 1 mps 715 mmHg 52%
    09:00 +30°C° 0 mm 1 mps 715 mmHg 49%
    10:00 +32°C° 0 mm 1 mps 715 mmHg 46%
    11:00 +35°C° 0 mm 2 mps 715 mmHg 42%
    12:00 +36°C° 0 mm 2 mps 714 mmHg 40%
    13:00 +37°C° 0 mm 3 mps 713 mmHg 37%
    14:00 +38°C° 0 mm 3 mps 713 mmHg 34%
    15:00 +37°C° 0.2 mm 3 mps 712 mmHg 35%
    16:00 +37°C° 0.2 mm 3 mps 712 mmHg 37%
    17:00 +37°C° 0.2 mm 3 mps 712 mmHg 38%
    18:00 +34°C° 1 mm 2 mps 712 mmHg 46%
    19:00 +31°C° 1 mm 2 mps 713 mmHg 53%
    20:00 +29°C° 1 mm 1 mps 714 mmHg 61%
    21:00 +28°C° 1.1 mm 1 mps 714 mmHg 66%
    22:00 +27°C° 1.1 mm 1 mps 715 mmHg 70%
    23:00 +26°C° 1.1 mm 1 mps 715 mmHg 75%

    Day after tomorrow, 18 October, Thursday

    Time Temperature Precipitation Wind Pressure Humidity
    00:00 +26°C° 0.1 mm 1 mps 715 mmHg 77%
    01:00 +26°C° 0.1 mm 1 mps 715 mmHg 79%
    02:00 +25°C° 0.1 mm 1 mps 714 mmHg 81%
    03:00 +25°C° 0.1 mm 1 mps 714 mmHg 80%
    04:00 +25°C° 0.1 mm 1 mps 714 mmHg 79%
    05:00 +25°C° 0.1 mm 1 mps 715 mmHg 79%
    06:00 +26°C° 0 mm 1 mps 715 mmHg 74%
    07:00 +28°C° 0 mm 1 mps 716 mmHg 70%
    08:00 +29°C° 0 mm 1 mps 716 mmHg 66%
    09:00 +30°C° 0 mm 1 mps 716 mmHg 65%
    10:00 +31°C° 0 mm 1 mps 716 mmHg 64%
    11:00 +32°C° 0 mm 1 mps 716 mmHg 63%
    12:00 +34°C° 0.1 mm 2 mps 716 mmHg 59%
    13:00 +35°C° 0.1 mm 2 mps 716 mmHg 54%
    14:00 +37°C° 0.1 mm 2 mps 715 mmHg 50%
    15:00 +36°C° 2.1 mm 2 mps 715 mmHg 53%
    16:00 +35°C° 2.1 mm 2 mps 715 mmHg 56%
    17:00 +34°C° 2.1 mm 2 mps 714 mmHg 60%
    18:00 +31°C° 5.9 mm 2 mps 715 mmHg 66%
    19:00 +29°C° 5.9 mm 2 mps 716 mmHg 73%
    20:00 +28°C° 5.9 mm 2 mps 716 mmHg 80%
    21:00 +27°C° 4.8 mm 2 mps 717 mmHg 81%
    22:00 +27°C° 4.8 mm 2 mps 718 mmHg 81%
    23:00 +26°C° 4.8 mm 3 mps 718 mmHg 82%

    19 October, Friday

    Time Temperature Precipitation Wind Pressure Humidity
    00:00 +26°C° 1.8 mm 2 mps 719 mmHg 83%
    01:00 +26°C° 1.8 mm 2 mps 719 mmHg 84%
    02:00 +26°C° 1.8 mm 2 mps 719 mmHg 84%
    03:00 +25°C° 0.2 mm 1 mps 719 mmHg 84%
    04:00 +25°C° 0.2 mm 1 mps 719 mmHg 84%
    05:00 +24°C° 0.2 mm 1 mps 719 mmHg 83%
    06:00 +25°C° 0.1 mm 1 mps 720 mmHg 79%
    07:00 +26°C° 0.1 mm 1 mps 720 mmHg 75%
    08:00 +28°C° 0.1 mm 2 mps 721 mmHg 71%
    09:00 +29°C° 0.6 mm 2 mps 721 mmHg 67%
    10:00 +30°C° 0.6 mm 2 mps 721 mmHg 63%
    11:00 +31°C° 0.6 mm 2 mps 721 mmHg 59%
    12:00 +30°C° 1 mm 2 mps 720 mmHg 61%
    13:00 +30°C° 1 mm 2 mps 719 mmHg 63%
    14:00 +30°C° 1 mm 2 mps 718 mmHg 66%
    15:00 +30°C° 0.6 mm 2 mps 718 mmHg 67%
    16:00 +29°C° 0.6 mm 2 mps 718 mmHg 69%
    17:00 +29°C° 0.6 mm 2 mps 717 mmHg 71%
    18:00 +28°C° 0.7 mm 1 mps 718 mmHg 77%
    19:00 +26°C° 0.7 mm 1 mps 718 mmHg 83%
    20:00 +25°C° 0.7 mm 1 mps 719 mmHg 89%
    21:00 +25°C° 0.5 mm 1 mps 719 mmHg 90%
    22:00 +25°C° 0.5 mm 1 mps 719 mmHg 91%
    23:00 +24°C° 0.5 mm 1 mps 719 mmHg 92%

    20 October, Saturday

    Time Temperature Precipitation Wind Pressure Humidity
    00:00 +24°C° 0.1 mm 1 mps 719 mmHg 93%
    01:00 +24°C° 0.1 mm 1 mps 718 mmHg 93%
    02:00 +24°C° 0.1 mm 1 mps 718 mmHg 93%
    03:00 +24°C° 0 mm 1 mps 718 mmHg 93%
    04:00 +24°C° 0 mm 1 mps 718 mmHg 93%
    05:00 +23°C° 0 mm 1 mps 718 mmHg 92%
    06:00 +25°C° 0 mm 1 mps 718 mmHg 88%
    07:00 +26°C° 0 mm 2 mps 718 mmHg 83%
    08:00 +27°C° 0 mm 2 mps 719 mmHg 78%
    09:00 +28°C° 0.1 mm 3 mps 718 mmHg 72%
    10:00 +30°C° 0.1 mm 3 mps 718 mmHg 65%
    11:00 +31°C° 0.1 mm 3 mps 718 mmHg 59%
    12:00 +33°C° 0.3 mm 3 mps 717 mmHg 58%
    13:00 +33°C° 0.3 mm 3 mps 716 mmHg 57%
    14:00 +34°C° 0.3 mm 3 mps 716 mmHg 56%
    15:00 +33°C° 0.8 mm 3 mps 715 mmHg 59%
    16:00 +33°C° 0.8 mm 3 mps 715 mmHg 61%
    17:00 +31°C° 0.8 mm 3 mps 715 mmHg 63%
    18:00 +30°C° 0.9 mm 2 mps 715 mmHg 68%
    19:00 +28°C° 0.9 mm 1 mps 716 mmHg 73%
    20:00 +27°C° 0.9 mm 1 mps 716 mmHg 78%
    21:00 +27°C° 1 mm 1 mps 716 mmHg 79%
    22:00 +26°C° 1 mm 1 mps 717 mmHg 81%
    23:00 +26°C° 1 mm 1 mps 717 mmHg 83%

    21 October, Sunday

    Time Temperature Precipitation Wind Pressure Humidity
    00:00 +26°C° 0.3 mm 1 mps 717 mmHg 83%
    01:00 +25°C° 0.3 mm 1 mps 716 mmHg 83%
    02:00 +25°C° 0.3 mm 1 mps 716 mmHg 84%
    03:00 +25°C° 0.1 mm 1 mps 716 mmHg 84%
    04:00 +25°C° 0.1 mm 1 mps 716 mmHg 84%
    05:00 +24°C° 0.1 mm 1 mps 716 mmHg 85%
    06:00 +25°C° 0.3 mm 1 mps 717 mmHg 82%
    07:00 +26°C° 0.3 mm 1 mps 717 mmHg 80%
    08:00 +27°C° 0.3 mm 1 mps 717 mmHg 77%
    09:00 +29°C° 0.7 mm 1 mps 717 mmHg 72%
    10:00 +30°C° 0.7 mm 1 mps 717 mmHg 67%
    11:00 +32°C° 0.7 mm 2 mps 716 mmHg 62%
    12:00 +32°C° 0.8 mm 2 mps 716 mmHg 63%
    13:00 +32°C° 0.8 mm 2 mps 715 mmHg 63%
    14:00 +32°C° 0.8 mm 2 mps 714 mmHg 64%
    15:00 +31°C° 1.2 mm 2 mps 714 mmHg 67%
    16:00 +30°C° 1.2 mm 2 mps 714 mmHg 70%
    17:00 +30°C° 1.2 mm 1 mps 713 mmHg 73%
    18:00 +28°C° 1.8 mm 1 mps 714 mmHg 78%
    19:00 +27°C° 1.8 mm 1 mps 714 mmHg 83%
    20:00 +26°C° 1.8 mm 1 mps 715 mmHg 88%
    21:00 +26°C° 0.6 mm 1 mps 715 mmHg 89%
    22:00 +25°C° 0.6 mm 1 mps 715 mmHg 89%
    23:00 +25°C° 0.6 mm 1 mps 715 mmHg 90%
    Show more